Location: Central Falls
(41.8900°N, 71.3929°W)
Time: 11:37:17
(UTC+00:00)

A-11 Canister half - Pass Details

Date: 10 December 2023
Orbit: 1526 x 1682 km, 47.3° (Epoch: 20 February)

Event Time Altitude Azimuth Distance (km) Brightness Sun altitude
Rises 00:37:45 0° 266° (W) 4,927 12.6 -37.0°
Reaches altitude 10° 00:40:58 10° 269° (W) 3,943 11.9 -37.6°
Enters shadow 00:50:50 67° 343° (NNW) 1,793 9.2 -39.4°
Maximum altitude 00:51:05 67° 351° (N) 1,790 - -39.5°
Drops below altitude 10° 01:01:05 10° 74° (ENE) 3,892 - -41.3°
Sets 01:04:14 0° 78° (ENE) 4,861 - -41.9°
